| time (UTC) | temp C | wind direction | speed KPH | gust KPH | rain 1hr cm | rain 24hr cm | rain mn cm | humidity % | barometer mb |
| 20260509223509 | 20 | 161 | 1.6 | 4.8 | 0.00 | 1.24 | 1.24 | 92 | 1011.1 |
| 20260509223010 | 21 | 261 | 1.6 | 6.4 | 0.00 | 1.24 | 1.24 | 92 | 1011.2 |
| 20260509222509 | 20 | 197 | 1.6 | 12.9 | 0.00 | 1.24 | 1.24 | 91 | 1011.1 |
| 20260509222012 | 21 | 212 | 1.6 | 12.9 | 0.00 | 1.24 | 1.24 | 92 | 1011.2 |
| 20260509221510 | 21 | 126 | 0.0 | 3.2 | 0.00 | 1.24 | 1.24 | 92 | 1011.0 |
| 20260509221011 | 21 | 242 | 0.0 | 3.2 | 0.00 | 1.24 | 1.24 | 92 | 1011.0 |
| 20260509220012 | 21 | 98 | 0.0 | 4.8 | 0.00 | 1.24 | 1.24 | 92 | 1010.9 |
| 20260509215507 | 21 | 88 | 1.6 | 6.4 | 0.00 | 1.24 | 1.24 | 91 | 1010.8 |
| 20260509215009 | 21 | 88 | 0.0 | 6.4 | 0.00 | 1.24 | 1.24 | 91 | 1010.6 |
| 20260509214509 | 21 | 205 | 0.0 | 6.4 | 0.00 | 1.24 | 1.24 | 91 | 1011.0 |
| 20260509214009 | 21 | 130 | 0.0 | 3.2 | 0.00 | 1.24 | 1.24 | 92 | 1010.9 |
| 20260509213508 | 21 | 130 | 0.0 | 3.2 | 0.00 | 1.24 | 1.24 | 92 | 1010.9 |
| 20260509212508 | 21 | 86 | 0.0 | 0.0 | 0.00 | 1.24 | 1.24 | 93 | 1011.0 |
| 20260509212009 | 21 | 86 | 0.0 | 0.0 | 0.00 | 1.24 | 1.24 | 93 | 1011.0 |
| 20260509211508 | 21 | 93 | 0.0 | 0.0 | 0.00 | 1.24 | 1.24 | 93 | 1010.9 |
| 20260509211010 | 21 | 93 | 0.0 | 3.2 | 0.00 | 1.24 | 1.24 | 92 | 1011.1 |
| 20260509210508 | 21 | 88 | 1.6 | 6.4 | 0.00 | 1.24 | 1.24 | 92 | 1011.0 |
| 20260509205508 | 21 | 77 | 0.0 | 3.2 | 0.00 | 1.24 | 1.24 | 93 | 1011.0 |
| 20260509205008 | 21 | 108 | 0.0 | 0.0 | 0.00 | 1.24 | 1.24 | 93 | 1010.9 |
| 20260509204508 | 21 | 111 | 0.0 | 0.0 | 0.03 | 1.24 | 1.24 | 93 | 1011.0 |
| 20260509204008 | 21 | 74 | 0.0 | 0.0 | 0.05 | 1.24 | 1.24 | 93 | 1011.1 |
| 20260509203011 | 21 | 86 | 0.0 | 0.0 | 0.13 | 1.24 | 1.24 | 93 | 1011.2 |
| 20260509202508 | 21 | 104 | 0.0 | 0.0 | 0.13 | 1.24 | 1.24 | 93 | 1011.2 |
| 20260509202008 | 21 | 120 | 0.0 | 0.0 | 0.13 | 1.24 | 1.24 | 93 | 1011.2 |
| 20260509201508 | 21 | 119 | 0.0 | 3.2 | 0.13 | 1.24 | 1.24 | 93 | 1011.2 |
| 20260509201008 | 21 | 120 | 0.0 | 4.8 | 0.13 | 1.24 | 1.24 | 92 | 1011.3 |
| 20260509200508 | 21 | 106 | 0.0 | 3.2 | 0.13 | 1.24 | 1.24 | 92 | 1011.3 |
| 20260509200012 | 21 | 355 | 0.0 | 3.2 | 0.13 | 1.24 | 1.24 | 92 | 1011.3 |
| 20260509195508 | 21 | 355 | 0.0 | 3.2 | 0.13 | 1.24 | 1.24 | 91 | 1011.3 |
| 20260509195009 | 21 | 17 | 1.6 | 8.0 | 0.13 | 1.24 | 1.24 | 90 | 1011.2 |
| 20260509194509 | 21 | 98 | 1.6 | 8.0 | 0.10 | 1.22 | 1.22 | 90 | 1011.2 |
| 20260509194009 | 21 | 111 | 1.6 | 6.4 | 0.08 | 1.19 | 1.19 | 89 | 1011.2 |
| 20260509193508 | 21 | 177 | 1.6 | 6.4 | 0.05 | 1.17 | 1.17 | 90 | 1011.3 |
| 20260509193009 | 21 | 98 | 1.6 | 6.4 | 0.00 | 1.12 | 1.12 | 89 | 1011.2 |
| 20260509192507 | 21 | 108 | 0.0 | 6.4 | 0.00 | 1.12 | 1.12 | 89 | 1011.2 |
| 20260509192009 | 21 | 46 | 0.0 | 0.0 | 0.00 | 1.12 | 1.12 | 89 | 1011.1 |
| 20260509191008 | 21 | 74 | 0.0 | 0.0 | 0.00 | 1.12 | 1.12 | 89 | 1011.0 |
| 20260509190508 | 22 | 62 | 0.0 | 0.0 | 0.00 | 1.12 | 1.12 | 90 | 1011.1 |
| 20260509190010 | 22 | 81 | 0.0 | 0.0 | 0.00 | 1.12 | 1.12 | 90 | 1011.2 |
| 20260509185008 | 22 | 79 | 0.0 | 0.0 | 0.00 | 1.12 | 1.12 | 90 | 1011.1 |
| 20260509184508 | 22 | 57 | 0.0 | 0.0 | 0.00 | 1.12 | 1.12 | 90 | 1011.1 |
| 20260509183507 | 22 | 120 | 0.0 | 0.0 | 0.00 | 1.12 | 1.12 | 89 | 1011.0 |
| 20260509183009 | 22 | 120 | 0.0 | 0.0 | 0.00 | 1.12 | 1.12 | 89 | 1011.1 |
| 20260509182009 | 22 | 124 | 0.0 | 0.0 | 0.00 | 1.12 | 1.12 | 89 | 1011.1 |
| 20260509181509 | 22 | 137 | 0.0 | 0.0 | 0.00 | 1.12 | 1.12 | 89 | 1011.1 |
| 20260509181008 | 22 | 134 | 0.0 | 0.0 | 0.00 | 1.12 | 1.12 | 89 | 1011.1 |
| 20260509180508 | 22 | 99 | 0.0 | 0.0 | 0.00 | 1.12 | 1.12 | 90 | 1011.1 |
| 20260509180009 | 22 | 80 | 0.0 | 0.0 | 0.00 | 1.12 | 1.12 | 90 | 1011.3 |
| 20260509175508 | 22 | 81 | 0.0 | 0.0 | 0.00 | 1.12 | 1.12 | 89 | 1011.2 |
| 20260509175008 | 22 | 81 | 0.0 | 0.0 | 0.00 | 1.12 | 1.12 | 90 | 1011.4 |
| 20260509174507 | 22 | 82 | 0.0 | 0.0 | 0.00 | 1.12 | 1.12 | 90 | 1011.4 |
| 20260509174008 | 22 | 93 | 0.0 | 0.0 | 0.00 | 1.12 | 1.12 | 90 | 1011.4 |
| 20260509173506 | 22 | 110 | 0.0 | 0.0 | 0.00 | 1.12 | 1.12 | 90 | 1011.3 |
| 20260509173009 | 22 | 59 | 0.0 | 0.0 | 0.00 | 1.12 | 1.12 | 91 | 1011.4 |
| 20260509172508 | 22 | 63 | 0.0 | 0.0 | 0.00 | 1.12 | 1.12 | 91 | 1011.5 |
| 20260509171509 | 22 | 166 | 0.0 | 0.0 | 0.00 | 1.12 | 1.12 | 91 | 1011.7 |
| 20260509171008 | 22 | 102 | 0.0 | 0.0 | 0.00 | 1.12 | 1.12 | 92 | 1011.7 |
| 20260509170508 | 21 | 105 | 0.0 | 0.0 | 0.00 | 1.12 | 1.12 | 92 | 1011.7 |
| 20260509170011 | 21 | 108 | 0.0 | 0.0 | 0.00 | 1.12 | 1.12 | 92 | 1011.7 |
| 20260509165506 | 21 | 76 | 0.0 | 0.0 | 0.00 | 1.19 | 1.12 | 93 | 1011.9 |
| 20260509165009 | 21 | 72 | 0.0 | 0.0 | 0.00 | 1.19 | 1.12 | 93 | 1012.0 |
| 20260509164509 | 21 | 72 | 0.0 | 0.0 | 0.00 | 1.19 | 1.12 | 92 | 1012.0 |
| 20260509164009 | 21 | 72 | 0.0 | 0.0 | 0.00 | 1.19 | 1.12 | 92 | 1012.1 |
| 20260509163506 | 21 | 59 | 0.0 | 0.0 | 0.00 | 1.19 | 1.12 | 92 | 1012.0 |
| 20260509162507 | 21 | 54 | 0.0 | 0.0 | 0.00 | 1.19 | 1.12 | 93 | 1011.9 |
| 20260509162009 | 21 | 69 | 0.0 | 0.0 | 0.00 | 1.19 | 1.12 | 93 | 1012.0 |
| 20260509161509 | 21 | 69 | 0.0 | 0.0 | 0.00 | 1.19 | 1.12 | 94 | 1011.8 |
| 20260509161011 | 21 | 70 | 0.0 | 0.0 | 0.00 | 1.19 | 1.12 | 94 | 1011.9 |
| 20260509155506 | 20 | 84 | 0.0 | 0.0 | 0.00 | 1.45 | 1.12 | 94 | 1011.8 |
| 20260509154509 | 20 | 96 | 0.0 | 0.0 | 0.00 | 1.45 | 1.12 | 94 | 1011.7 |
| 20260509154008 | 20 | 96 | 0.0 | 0.0 | 0.00 | 1.45 | 1.12 | 94 | 1011.5 |
| 20260509153508 | 20 | 117 | 0.0 | 0.0 | 0.00 | 1.45 | 1.12 | 95 | 1011.3 |
| 20260509153010 | 20 | 117 | 0.0 | 0.0 | 0.00 | 1.45 | 1.12 | 95 | 1011.4 |
| 20260509152508 | 20 | 116 | 0.0 | 0.0 | 0.00 | 1.45 | 1.12 | 95 | 1011.3 |
| 20260509151508 | 20 | 121 | 0.0 | 0.0 | 0.00 | 1.45 | 1.12 | 95 | 1011.2 |
| 20260509151009 | 20 | 127 | 0.0 | 0.0 | 0.00 | 1.45 | 1.12 | 95 | 1011.2 |
| 20260509150010 | 19 | 127 | 0.0 | 0.0 | 0.00 | 1.45 | 1.12 | 96 | 1011.2 |
| 20260509145506 | 19 | 133 | 0.0 | 0.0 | 0.00 | 1.45 | 1.12 | 96 | 1011.3 |
| 20260509145008 | 19 | 134 | 0.0 | 0.0 | 0.00 | 1.45 | 1.12 | 96 | 1011.2 |
| 20260509144508 | 18 | 134 | 0.0 | 0.0 | 0.00 | 1.45 | 1.12 | 96 | 1011.1 |
| 20260509144007 | 18 | 134 | 0.0 | 0.0 | 0.00 | 1.45 | 1.12 | 96 | 1011.3 |
| 20260509143508 | 18 | 136 | 0.0 | 0.0 | 0.00 | 1.45 | 1.12 | 96 | 1011.4 |
| 20260509143009 | 18 | 137 | 0.0 | 0.0 | 0.00 | 1.45 | 1.12 | 96 | 1011.5 |
| 20260509142506 | 18 | 140 | 0.0 | 0.0 | 0.00 | 1.45 | 1.12 | 96 | 1011.6 |
| 20260509142008 | 18 | 142 | 0.0 | 0.0 | 0.00 | 1.45 | 1.12 | 96 | 1011.5 |
| 20260509141508 | 18 | 141 | 0.0 | 0.0 | 0.00 | 1.45 | 1.12 | 96 | 1011.6 |
| 20260509141010 | 18 | 157 | 0.0 | 0.0 | 0.00 | 1.45 | 1.12 | 96 | 1011.6 |
| 20260509140508 | 18 | 157 | 0.0 | 0.0 | 0.00 | 1.45 | 1.12 | 96 | 1011.6 |
| 20260509140010 | 18 | 157 | 0.0 | 0.0 | 0.00 | 1.45 | 1.12 | 96 | 1011.5 |
| 20260509135507 | 18 | 156 | 0.0 | 0.0 | 0.00 | 1.45 | 1.12 | 96 | 1011.5 |
| 20260509135009 | 18 | 156 | 0.0 | 0.0 | 0.00 | 1.45 | 1.12 | 96 | 1011.5 |
| 20260509134508 | 17 | 162 | 0.0 | 0.0 | 0.00 | 1.45 | 1.12 | 96 | 1011.6 |
| 20260509133506 | 17 | 165 | 0.0 | 0.0 | 0.00 | 1.45 | 1.12 | 96 | 1011.8 |
| 20260509133008 | 17 | 170 | 0.0 | 0.0 | 0.00 | 1.45 | 1.12 | 96 | 1011.8 |
| 20260509132507 | 17 | 170 | 0.0 | 0.0 | 0.00 | 1.45 | 1.12 | 96 | 1011.8 |
| 20260509132008 | 17 | 170 | 0.0 | 0.0 | 0.00 | 1.45 | 1.12 | 96 | 1011.5 |
| 20260509131508 | 17 | 170 | 0.0 | 0.0 | 0.00 | 1.45 | 1.12 | 96 | 1011.7 |
| 20260509130506 | 17 | 170 | 0.0 | 0.0 | 0.00 | 1.45 | 1.12 | 96 | 1011.6 |
| 20260509125006 | 17 | 170 | 0.0 | 0.0 | 0.00 | 1.45 | 1.12 | 95 | 1011.5 |
| 20260509124506 | 17 | 170 | 0.0 | 0.0 | 0.00 | 1.45 | 1.12 | 95 | 1011.3 |
| 20260509124007 | 17 | 170 | 0.0 | 0.0 | 0.00 | 1.45 | 1.12 | 95 | 1011.3 |
| 20260509123505 | 17 | 170 | 0.0 | 0.0 | 0.00 | 1.45 | 1.12 | 95 | 1011.4 |
| 20260509122506 | 17 | 170 | 0.0 | 0.0 | 0.00 | 1.45 | 1.12 | 95 | 1011.3 |
| 20260509122007 | 17 | 170 | 0.0 | 0.0 | 0.00 | 1.45 | 1.12 | 95 | 1011.3 |
| 20260509121506 | 17 | 170 | 0.0 | 0.0 | 0.00 | 1.45 | 1.12 | 95 | 1011.3 |
| 20260509121006 | 17 | 170 | 0.0 | 0.0 | 0.00 | 1.45 | 1.12 | 95 | 1011.3 |
| 20260509120506 | 17 | 170 | 0.0 | 0.0 | 0.00 | 1.45 | 1.12 | 95 | 1011.3 |
| 20260509120009 | 17 | 170 | 0.0 | 0.0 | 0.00 | 1.45 | 1.12 | 95 | 1011.2 |
| 20260509115507 | 17 | 170 | 0.0 | 0.0 | 0.00 | 1.45 | 1.12 | 95 | 1011.3 |
| 20260509114508 | 17 | 170 | 0.0 | 0.0 | 0.00 | 1.45 | 1.12 | 95 | 1011.3 |
| 20260509114010 | 17 | 170 | 0.0 | 0.0 | 0.00 | 1.45 | 1.12 | 95 | 1011.1 |
| 20260509113508 | 17 | 170 | 0.0 | 0.0 | 0.00 | 1.45 | 1.12 | 95 | 1010.9 |
| 20260509113007 | 17 | 170 | 0.0 | 0.0 | 0.00 | 1.45 | 1.12 | 95 | 1010.8 |
| 20260509112507 | 17 | 170 | 0.0 | 0.0 | 0.00 | 1.45 | 1.12 | 95 | 1010.9 |
| 20260509112009 | 17 | 170 | 0.0 | 0.0 | 0.00 | 1.45 | 1.12 | 95 | 1010.7 |
| 20260509111507 | 17 | 170 | 0.0 | 0.0 | 0.00 | 1.45 | 1.12 | 95 | 1010.9 |
| 20260509111008 | 17 | 170 | 0.0 | 0.0 | 0.00 | 1.45 | 1.12 | 95 | 1010.8 |
| 20260509110506 | 17 | 169 | 0.0 | 0.0 | 0.00 | 1.45 | 1.12 | 95 | 1010.6 |
| 20260509110010 | 17 | 168 | 0.0 | 0.0 | 0.00 | 1.45 | 1.12 | 95 | 1010.5 |
| 20260509104507 | 17 | 169 | 0.0 | 0.0 | 0.00 | 1.45 | 1.12 | 95 | 1010.4 |
| 20260509104009 | 17 | 169 | 0.0 | 0.0 | 0.00 | 1.45 | 1.12 | 95 | 1010.2 |
| 20260509103507 | 17 | 141 | 0.0 | 0.0 | 0.00 | 1.45 | 1.12 | 95 | 1010.4 |
| 20260509103009 | 17 | 140 | 0.0 | 0.0 | 0.03 | 1.45 | 1.12 | 95 | 1010.3 |
| 20260509102507 | 17 | 141 | 0.0 | 0.0 | 0.03 | 1.45 | 1.12 | 94 | 1010.3 |
| 20260509102009 | 17 | 141 | 0.0 | 0.0 | 0.05 | 1.45 | 1.12 | 94 | 1010.4 |
| 20260509101508 | 17 | 141 | 0.0 | 0.0 | 0.15 | 1.45 | 1.12 | 94 | 1010.4 |
| 20260509101008 | 17 | 141 | 0.0 | 0.0 | 0.51 | 1.45 | 1.12 | 94 | 1010.7 |
| 20260509100507 | 17 | 141 | 0.0 | 0.0 | 0.76 | 1.45 | 1.12 | 94 | 1010.9 |
| 20260509100010 | 17 | 141 | 0.0 | 0.0 | 0.97 | 1.45 | 1.12 | 94 | 1010.7 |
| 20260509094509 | 17 | 140 | 0.0 | 0.0 | 1.12 | 1.45 | 1.12 | 94 | 1011.0 |
| 20260509094010 | 17 | 140 | 0.0 | 0.0 | 1.12 | 1.45 | 1.12 | 94 | 1011.2 |
| 20260509093508 | 17 | 140 | 0.0 | 0.0 | 1.12 | 1.45 | 1.12 | 94 | 1011.2 |
| 20260509093008 | 17 | 140 | 0.0 | 0.0 | 1.09 | 1.42 | 1.09 | 94 | 1011.6 |
| 20260509092507 | 17 | 140 | 0.0 | 0.0 | 1.09 | 1.42 | 1.09 | 94 | 1011.6 |
| 20260509092009 | 18 | 144 | 0.0 | 1.6 | 1.04 | 1.37 | 1.04 | 94 | 1011.7 |
| 20260509091508 | 18 | 144 | 0.0 | 4.8 | 0.89 | 1.22 | 0.89 | 93 | 1011.9 |
| 20260509090509 | 18 | 18 | 3.2 | 8.0 | 0.30 | 0.64 | 0.30 | 94 | 1012.4 |
| 20260509090014 | 18 | 24 | 4.8 | 9.7 | 0.13 | 0.46 | 0.13 | 94 | 1012.4 |
| 20260509085509 | 19 | 12 | 3.2 | 9.7 | 0.05 | 0.38 | 0.05 | 95 | 1012.3 |
| 20260509085008 | 19 | 19 | 0.0 | 6.4 | 0.00 | 0.33 | 0.00 | 95 | 1012.5 |
| 20260509084509 | 19 | 355 | 0.0 | 0.0 | 0.00 | 0.33 | 0.00 | 95 | 1012.2 |
| 20260509084007 | 19 | 229 | 0.0 | 0.0 | 0.00 | 0.33 | 0.00 | 95 | 1011.2 |
| 20260509083506 | 18 | 228 | 0.0 | 0.0 | 0.00 | 0.33 | 0.00 | 95 | 1011.2 |
| 20260509083007 | 18 | 228 | 0.0 | 0.0 | 0.00 | 0.33 | 0.00 | 94 | 1010.9 |
| 20260509082506 | 18 | 228 | 0.0 | 0.0 | 0.00 | 0.33 | 0.00 | 94 | 1010.7 |
| 20260509082007 | 18 | 228 | 0.0 | 0.0 | 0.00 | 0.33 | 0.00 | 94 | 1010.5 |
| 20260509081008 | 18 | 228 | 0.0 | 0.0 | 0.00 | 0.33 | 0.00 | 94 | 1010.2 |
| 20260509080507 | 18 | 232 | 0.0 | 0.0 | 0.00 | 0.33 | 0.00 | 94 | 1010.1 |
| 20260509075507 | 19 | 232 | 0.0 | 0.0 | 0.00 | 0.33 | 0.00 | 94 | 1009.9 |
| 20260509075008 | 19 | 212 | 0.0 | 0.0 | 0.00 | 0.33 | 0.00 | 94 | 1009.8 |
| 20260509074509 | 19 | 212 | 0.0 | 0.0 | 0.00 | 0.33 | 0.00 | 94 | 1010.1 |
| 20260509074009 | 19 | 212 | 0.0 | 0.0 | 0.00 | 0.33 | 0.00 | 94 | 1010.1 |
| 20260509073508 | 19 | 212 | 0.0 | 0.0 | 0.00 | 0.33 | 0.00 | 94 | 1010.1 |
| 20260509073010 | 19 | 212 | 0.0 | 0.0 | 0.00 | 0.33 | 0.00 | 94 | 1010.1 |
| 20260509072507 | 19 | 212 | 0.0 | 0.0 | 0.00 | 0.33 | 0.00 | 94 | 1010.2 |
| 20260509072009 | 19 | 212 | 0.0 | 0.0 | 0.00 | 0.33 | 0.00 | 94 | 1010.3 |
| 20260509071508 | 19 | 212 | 0.0 | 0.0 | 0.00 | 0.33 | 0.00 | 94 | 1010.3 |
| 20260509071010 | 19 | 212 | 0.0 | 0.0 | 0.00 | 0.33 | 0.00 | 94 | 1010.5 |
| 20260509065506 | 19 | 207 | 0.0 | 0.0 | 0.00 | 0.33 | 0.00 | 95 | 1010.8 |
| 20260509065007 | 19 | 207 | 0.0 | 0.0 | 0.00 | 0.33 | 0.00 | 95 | 1010.8 |
| 20260509064007 | 19 | 207 | 0.0 | 0.0 | 0.00 | 0.33 | 0.00 | 95 | 1011.1 |
| 20260509063507 | 19 | 207 | 0.0 | 0.0 | 0.00 | 0.33 | 0.00 | 95 | 1011.2 |
| 20260509063008 | 19 | 207 | 0.0 | 0.0 | 0.00 | 0.33 | 0.00 | 95 | 1011.2 |
| 20260509062505 | 19 | 207 | 0.0 | 0.0 | 0.00 | 0.33 | 0.00 | 94 | 1011.2 |
| 20260509062007 | 19 | 207 | 0.0 | 0.0 | 0.00 | 0.33 | 0.00 | 94 | 1011.4 |
| 20260509061507 | 19 | 207 | 0.0 | 0.0 | 0.00 | 0.33 | 0.00 | 94 | 1011.3 |
| 20260509061007 | 19 | 207 | 0.0 | 0.0 | 0.00 | 0.33 | 0.00 | 94 | 1011.5 |
| 20260509060508 | 19 | 207 | 0.0 | 0.0 | 0.00 | 0.33 | 0.00 | 94 | 1011.4 |
| 20260509060009 | 19 | 207 | 0.0 | 0.0 | 0.00 | 0.33 | 0.00 | 94 | 1011.5 |
| 20260509055507 | 19 | 207 | 0.0 | 0.0 | 0.00 | 0.33 | 0.00 | 94 | 1011.6 |
| 20260509054510 | 19 | 207 | 0.0 | 0.0 | 0.00 | 0.33 | 0.00 | 94 | 1011.6 |
| 20260509054008 | 19 | 207 | 0.0 | 0.0 | 0.00 | 0.33 | 0.00 | 94 | 1011.6 |
| 20260509053508 | 19 | 207 | 0.0 | 0.0 | 0.00 | 0.33 | 0.00 | 94 | 1011.6 |
| 20260509053009 | 19 | 207 | 0.0 | 0.0 | 0.00 | 0.33 | 0.00 | 94 | 1011.4 |
| 20260509052507 | 19 | 207 | 0.0 | 0.0 | 0.00 | 0.33 | 0.00 | 94 | 1011.4 |
| 20260509052008 | 19 | 207 | 0.0 | 0.0 | 0.00 | 0.33 | 0.00 | 94 | 1011.4 |
| 20260509051508 | 19 | 207 | 0.0 | 0.0 | 0.00 | 0.33 | 0.00 | 94 | 1011.3 |
| 20260509051007 | 19 | 207 | 0.0 | 0.0 | 0.00 | 0.33 | 0.00 | 94 | 1011.2 |
| 20260509050507 | 19 | 207 | 0.0 | 0.0 | 0.00 | 0.33 | 0.00 | 94 | 1011.2 |
| 20260509050014 | 19 | 207 | 0.0 | 0.0 | 0.00 | 0.33 | 0.00 | 94 | 1011.1 |
| 20260509045509 | 19 | 207 | 0.0 | 0.0 | 0.00 | 0.33 | 0.33 | 94 | 1011.2 |
| 20260509045010 | 19 | 207 | 0.0 | 0.0 | 0.00 | 0.33 | 0.33 | 94 | 1011.0 |
| 20260509044510 | 19 | 207 | 0.0 | 0.0 | 0.00 | 0.33 | 0.33 | 94 | 1011.1 |
| 20260509044010 | 19 | 355 | 0.0 | 0.0 | 0.00 | 0.33 | 0.33 | 94 | 1011.1 |
| 20260509043508 | 19 | 355 | 0.0 | 0.0 | 0.00 | 0.33 | 0.33 | 94 | 1011.0 |
| 20260509042509 | 19 | 64 | 0.0 | 1.6 | 0.00 | 0.33 | 0.33 | 94 | 1011.2 |
| 20260509042010 | 19 | 64 | 0.0 | 3.2 | 0.00 | 0.33 | 0.33 | 94 | 1011.2 |
| 20260509041510 | 19 | 64 | 0.0 | 3.2 | 0.00 | 0.33 | 0.33 | 94 | 1011.0 |
| 20260509041010 | 19 | 65 | 1.6 | 6.4 | 0.00 | 0.33 | 0.33 | 94 | 1010.9 |
| 20260509040509 | 19 | 99 | 1.6 | 6.4 | 0.00 | 0.33 | 0.33 | 94 | 1011.0 |
| 20260509040011 | 19 | 267 | 3.2 | 12.9 | 0.00 | 0.33 | 0.33 | 94 | 1010.8 |
| 20260509035507 | 19 | 220 | 3.2 | 12.9 | 0.00 | 0.33 | 0.33 | 94 | 1010.6 |
| 20260509035008 | 19 | 106 | 3.2 | 8.0 | 0.00 | 0.33 | 0.33 | 94 | 1010.5 |
| 20260509034508 | 19 | 170 | 3.2 | 11.3 | 0.00 | 0.33 | 0.33 | 94 | 1010.6 |
| 20260509033508 | 19 | 120 | 1.6 | 8.0 | 0.00 | 0.33 | 0.33 | 94 | 1010.3 |
| 20260509033010 | 19 | 74 | 3.2 | 11.3 | 0.00 | 0.33 | 0.33 | 93 | 1010.2 |
| 20260509032509 | 19 | 225 | 3.2 | 11.3 | 0.00 | 0.33 | 0.33 | 93 | 1010.3 |
| 20260509032008 | 19 | 188 | 1.6 | 12.9 | 0.00 | 0.33 | 0.33 | 93 | 1010.6 |
| 20260509031508 | 19 | 250 | 1.6 | 8.0 | 0.00 | 0.33 | 0.33 | 93 | 1010.7 |
| 20260509031009 | 19 | 213 | 1.6 | 8.0 | 0.00 | 0.33 | 0.33 | 93 | 1010.9 |
| 20260509030508 | 19 | 261 | 1.6 | 9.7 | 0.00 | 0.33 | 0.33 | 93 | 1010.9 |
| 20260509030011 | 19 | 251 | 3.2 | 11.3 | 0.00 | 0.33 | 0.33 | 93 | 1010.7 |
| 20260509025008 | 19 | 167 | 1.6 | 6.4 | 0.00 | 0.33 | 0.33 | 93 | 1010.4 |
| 20260509023508 | 19 | 163 | 0.0 | 8.0 | 0.00 | 0.33 | 0.33 | 93 | 1010.1 |
| 20260509023009 | 19 | 184 | 0.0 | 0.0 | 0.00 | 0.33 | 0.33 | 93 | 1010.1 |
| 20260509022508 | 19 | 174 | 0.0 | 0.0 | 0.00 | 0.33 | 0.33 | 93 | 1010.2 |
| 20260509022010 | 19 | 88 | 0.0 | 0.0 | 0.00 | 0.33 | 0.33 | 92 | 1010.4 |
| 20260509021508 | 19 | 88 | 0.0 | 0.0 | 0.00 | 0.33 | 0.33 | 92 | 1010.6 |
| 20260509021009 | 19 | 88 | 0.0 | 0.0 | 0.00 | 0.33 | 0.33 | 92 | 1010.7 |
| 20260509020011 | 19 | 38 | 0.0 | 0.0 | 0.00 | 0.33 | 0.33 | 92 | 1010.7 |
| 20260509015508 | 19 | 38 | 0.0 | 0.0 | 0.00 | 0.33 | 0.33 | 92 | 1010.8 |
| 20260509015009 | 19 | 38 | 0.0 | 0.0 | 0.00 | 0.33 | 0.33 | 92 | 1010.5 |
| 20260509014508 | 19 | 38 | 0.0 | 0.0 | 0.00 | 0.33 | 0.33 | 92 | 1010.4 |
| 20260509014010 | 19 | 38 | 0.0 | 0.0 | 0.00 | 0.33 | 0.33 | 92 | 1010.4 |
| 20260509013508 | 19 | 38 | 0.0 | 0.0 | 0.00 | 0.33 | 0.33 | 92 | 1010.7 |
| 20260509013009 | 19 | 38 | 0.0 | 0.0 | 0.00 | 0.33 | 0.33 | 92 | 1011.0 |
| 20260509012508 | 19 | 38 | 0.0 | 0.0 | 0.00 | 0.33 | 0.33 | 92 | 1011.0 |
| 20260509012011 | 19 | 38 | 0.0 | 0.0 | 0.00 | 0.33 | 0.33 | 92 | 1011.0 |
| 20260509011509 | 19 | 38 | 0.0 | 0.0 | 0.00 | 0.33 | 0.33 | 92 | 1011.1 |
| 20260509011009 | 19 | 38 | 0.0 | 0.0 | 0.00 | 0.33 | 0.33 | 91 | 1010.8 |
| 20260509010509 | 19 | 104 | 0.0 | 0.0 | 0.00 | 0.33 | 0.33 | 91 | 1010.6 |
| 20260509010011 | 19 | 103 | 0.0 | 0.0 | 0.00 | 0.33 | 0.33 | 91 | 1010.9 |
| 20260509005507 | 19 | 103 | 0.0 | 0.0 | 0.00 | 0.33 | 0.33 | 91 | 1011.2 |
| 20260509005008 | 19 | 103 | 0.0 | 0.0 | 0.00 | 0.33 | 0.33 | 91 | 1011.3 |
| 20260509004508 | 19 | 103 | 0.0 | 0.0 | 0.00 | 0.33 | 0.33 | 91 | 1011.3 |
| 20260509004009 | 19 | 103 | 0.0 | 0.0 | 0.00 | 0.33 | 0.33 | 91 | 1011.1 |
| 20260509003508 | 19 | 103 | 0.0 | 0.0 | 0.00 | 0.33 | 0.33 | 91 | 1010.7 |
| 20260509003009 | 19 | 103 | 0.0 | 0.0 | 0.00 | 0.33 | 0.33 | 91 | 1010.8 |
| 20260509002508 | 19 | 103 | 0.0 | 0.0 | 0.00 | 0.33 | 0.33 | 91 | 1010.7 |
| 20260509002009 | 19 | 103 | 0.0 | 0.0 | 0.00 | 0.33 | 0.33 | 91 | 1010.5 |
| 20260509001510 | 19 | 118 | 0.0 | 0.0 | 0.00 | 0.33 | 0.33 | 90 | 1010.7 |
| 20260509001010 | 19 | 118 | 0.0 | 0.0 | 0.00 | 0.33 | 0.33 | 90 | 1011.0 |
| 20260508235508 | 20 | 118 | 0.0 | 0.0 | 0.00 | 0.33 | 0.33 | 90 | 1011.3 |
| 20260508234508 | 20 | 118 | 0.0 | 0.0 | 0.00 | 0.33 | 0.33 | 90 | 1011.1 |
| 20260508234009 | 20 | 117 | 0.0 | 0.0 | 0.00 | 0.33 | 0.33 | 90 | 1011.2 |
| 20260508233009 | 20 | 113 | 0.0 | 0.0 | 0.00 | 0.33 | 0.33 | 90 | 1011.1 |
| 20260508232508 | 20 | 120 | 0.0 | 0.0 | 0.00 | 0.33 | 0.33 | 90 | 1011.3 |
| 20260508232009 | 20 | 121 | 0.0 | 0.0 | 0.00 | 0.33 | 0.33 | 90 | 1011.1 |
| 20260508231009 | 19 | 84 | 0.0 | 0.0 | 0.00 | 0.33 | 0.33 | 90 | 1010.9 |
| 20260508230012 | 19 | 164 | 0.0 | 0.0 | 0.00 | 0.33 | 0.33 | 89 | 1011.1 |
| 20260508225508 | 20 | 163 | 0.0 | 0.0 | 0.00 | 0.33 | 0.33 | 89 | 1011.3 |
| 20260508225009 | 20 | 164 | 0.0 | 0.0 | 0.00 | 0.33 | 0.33 | 89 | 1011.3 |
| 20260508224508 | 20 | 163 | 0.0 | 0.0 | 0.00 | 0.33 | 0.33 | 89 | 1011.3 |
| 20260508224008 | 19 | 164 | 0.0 | 3.2 | 0.00 | 0.33 | 0.33 | 89 | 1011.3 |